Change the Weather History Date:

Tuesday, June 10, 2014

  Actual Average (KAQP) Record (KAQP)
Temperature  
Mean Temperature 66 °F -  
Max Temperature 78 °F 73 °F 86 °F (2007)
Min Temperature 53 °F 53 °F 44 °F (2006)
Growing Degree Days 16 (Base 50)    
Moisture  
Dew Point 55 °F    
Average Humidity 66    
Maximum Humidity 100    
Minimum Humidity 39    
Precipitation  
Precipitation 0.00 in - - ()
Sea Level Pressure  
Sea Level Pressure 29.91 in    
Wind  
Wind Speed 4 mph (SSE)    
Max Wind Speed 12 mph    
Max Gust Speed 17 mph    
Visibility 9 miles    
Events      
Averages and records for this station are not official NWS values.
T = Trace of Precipitation, MM = Missing Value Source: NWS Daily Summary

Daily Weather History Graph

Daily Weather History Graph

Search for Another Location

Airport or City:

Trip Planner

Search our weather history database for the weather conditions in past years. The results will help you decide how hot, cold, wet, or windy it might be!

Date:

Astronomy

Jun. 10, 2014 Rise Set
Actual Time 5:37 AM CDT 9:10 PM CDT
Civil Twilight 5:00 AM CDT 9:47 PM CDT
Nautical Twilight 4:11 AM CDT 10:36 PM CDT
Astronomical Twilight 3:07 AM CDT 11:41 PM CDT
Moon 6:31 PM CDT (6/10) 3:51 AM CDT (6/10)
Length of Visible Light 16h 46m
Length of Day
15h 32m
Waxing Gibbous, 92% of the Moon is Illuminated
Jun 10
Waxing Gibbous
Jun 12
Full
Jun 19
Last Quarter
Jun 27
New
Jul 5
First Quarter

Hourly Weather History & Observations

Time (CDT) Temp. Dew Point Humidity Pressure Visibility Wind Dir Wind Speed Gust Speed Precip Events Conditions
12:13 AM 60.8 °F 51.8 °F 72% 29.97 in 10.0 mi SSE 5.8 mph - N/A   Clear
12:34 AM 59.0 °F 51.8 °F 77% 29.96 in 10.0 mi SSE 4.6 mph - N/A   Clear
12:54 AM 59.0 °F 53.6 °F 82% 29.96 in 10.0 mi South 4.6 mph - N/A   Clear
1:13 AM 59.0 °F 53.6 °F 82% 29.96 in 10.0 mi South 4.6 mph - N/A   Clear
1:34 AM 59.0 °F 53.6 °F 82% 29.96 in 10.0 mi South 4.6 mph - N/A   Clear
1:54 AM 57.2 °F 53.6 °F 88% 29.95 in 10.0 mi South 4.6 mph - N/A   Clear
2:13 AM 59.0 °F 53.6 °F 82% 29.95 in 10.0 mi Calm Calm - N/A   Clear
2:34 AM 57.2 °F 53.6 °F 88% 29.95 in 10.0 mi Calm Calm - N/A   Clear
2:54 AM 55.4 °F 53.6 °F 94% 29.95 in 10.0 mi Calm Calm - N/A   Clear
3:13 AM 55.4 °F 53.6 °F 94% 29.95 in 10.0 mi Calm Calm - N/A   Clear
3:34 AM 55.4 °F 53.6 °F 94% 29.94 in 7.0 mi Calm Calm - N/A   Clear
3:53 AM 55.4 °F 53.6 °F 94% 29.94 in 2.5 mi Calm Calm - N/A   Clear
4:14 AM 55.4 °F 53.6 °F 94% 29.94 in 4.0 mi Calm Calm - N/A   Clear
4:33 AM 55.4 °F 53.6 °F 94% 29.94 in 0.8 mi Calm Calm - N/A   Mist
4:53 AM 55.4 °F 53.6 °F 94% 29.94 in 7.0 mi SSE 3.5 mph - N/A   Clear
5:14 AM 55.4 °F 53.6 °F 94% 29.94 in 10.0 mi Calm Calm - N/A   Clear
5:33 AM 55.4 °F 53.6 °F 94% 29.95 in 10.0 mi Calm Calm - N/A   Clear
5:53 AM 53.6 °F 53.6 °F 100% 29.95 in 2.5 mi Calm Calm - N/A   Clear
6:14 AM 55.4 °F 53.6 °F 94% 29.95 in 1.5 mi Calm Calm - N/A   Mist
6:33 AM 55.4 °F 53.6 °F 94% 29.95 in 10.0 mi SE 3.5 mph - N/A   Clear
6:53 AM 57.2 °F 55.4 °F 94% 29.95 in 10.0 mi Calm Calm - N/A   Clear
7:14 AM 60.8 °F 57.2 °F 88% 29.95 in 10.0 mi Calm Calm - N/A   Clear
7:33 AM 60.8 °F 57.2 °F 88% 29.95 in 10.0 mi Calm Calm - N/A   Clear
7:53 AM 62.6 °F 57.2 °F 82% 29.95 in 10.0 mi Calm Calm - N/A   Clear
8:14 AM 64.4 °F 57.2 °F 77% 29.95 in 10.0 mi Calm Calm - N/A   Clear
8:53 AM 66.2 °F 57.2 °F 73% 29.95 in 10.0 mi Calm Calm - N/A   Clear
9:14 AM 68.0 °F 57.2 °F 68% 29.95 in 10.0 mi Calm Calm - N/A   Clear
9:33 AM 69.8 °F 57.2 °F 64% 29.95 in 10.0 mi ESE 3.5 mph - N/A   Clear
10:13 AM 71.6 °F 55.4 °F 57% 29.94 in 10.0 mi SSE 8.1 mph - N/A   Clear
10:34 AM 71.6 °F 55.4 °F 57% 29.94 in 10.0 mi SSE 6.9 mph - N/A   Clear
10:53 AM 71.6 °F 57.2 °F 60% 29.93 in 10.0 mi SE 6.9 mph - N/A   Clear
11:14 AM 73.4 °F 57.2 °F 57% 29.93 in 10.0 mi SSE 10.4 mph - N/A   Clear
11:34 AM 73.4 °F 57.2 °F 57% 29.93 in 10.0 mi SSE 8.1 mph - N/A   Clear
12:14 PM 75.2 °F 55.4 °F 50% 29.92 in 10.0 mi South 11.5 mph 16.1 mph N/A   Clear
12:34 PM 75.2 °F 53.6 °F 47% 29.91 in 10.0 mi SSE 10.4 mph 16.1 mph N/A   Clear
12:53 PM 75.2 °F 55.4 °F 50% 29.91 in 10.0 mi South 9.2 mph - N/A   Clear
1:14 PM 75.2 °F 55.4 °F 50% 29.91 in 10.0 mi South 6.9 mph - N/A   Clear
1:34 PM 75.2 °F 53.6 °F 47% 29.91 in 10.0 mi South 10.4 mph 17.3 mph N/A   Scattered Clouds
2:14 PM 75.2 °F 53.6 °F 47% 29.90 in 10.0 mi SSW 5.8 mph - N/A   Scattered Clouds
2:34 PM 77.0 °F 55.4 °F 47% 29.90 in 10.0 mi South 10.4 mph - N/A   Scattered Clouds
2:53 PM 77.0 °F 55.4 °F 47% 29.89 in 10.0 mi SSW 9.2 mph - N/A   Clear
3:14 PM 78.8 °F 55.4 °F 44% 29.89 in 10.0 mi South 9.2 mph - N/A   Clear
3:34 PM 77.0 °F 55.4 °F 47% 29.89 in 10.0 mi SSW 3.5 mph - N/A   Clear
4:14 PM 78.8 °F 55.4 °F 44% 29.88 in 10.0 mi SSW 9.2 mph - N/A   Clear
4:33 PM 77.0 °F 53.6 °F 44% 29.88 in 10.0 mi South 5.8 mph - N/A   Scattered Clouds
4:54 PM 78.8 °F 55.4 °F 44% 29.88 in 10.0 mi South 5.8 mph - N/A   Scattered Clouds
5:13 PM 78.8 °F 51.8 °F 39% 29.88 in 10.0 mi SSW 4.6 mph - N/A   Scattered Clouds
5:34 PM 77.0 °F 55.4 °F 47% 29.87 in 10.0 mi Calm Calm - N/A   Scattered Clouds
5:54 PM 78.8 °F 55.4 °F 44% 29.87 in 10.0 mi South 4.6 mph - N/A   Scattered Clouds
6:11 PM 77.0 °F 53.6 °F 44% 29.86 in 10.0 mi South 5.8 mph - N/A   Scattered Clouds
6:34 PM 77.0 °F 53.6 °F 44% 29.86 in 10.0 mi SE 6.9 mph - N/A   Scattered Clouds
6:53 PM 78.8 °F 53.6 °F 42% 29.85 in 10.0 mi SSE 3.5 mph - N/A   Scattered Clouds
7:13 PM 78.8 °F 53.6 °F 42% 29.85 in 10.0 mi South 5.8 mph - N/A   Clear
7:34 PM 78.8 °F 51.8 °F 39% 29.85 in 10.0 mi South 4.6 mph - N/A   Clear
7:53 PM 77.0 °F 53.6 °F 44% 29.84 in 10.0 mi SSE 3.5 mph - N/A   Clear
8:13 PM 75.2 °F 53.6 °F 47% 29.84 in 10.0 mi SE 3.5 mph - N/A   Clear
8:34 PM 75.2 °F 53.6 °F 47% 29.83 in 10.0 mi ESE 3.5 mph - N/A   Clear
8:53 PM 73.4 °F 55.4 °F 53% 29.83 in 10.0 mi ESE 4.6 mph - N/A   Clear
9:14 PM 69.8 °F 57.2 °F 64% 29.83 in 10.0 mi East 6.9 mph - N/A   Clear
9:34 PM 69.8 °F 57.2 °F 64% 29.83 in 10.0 mi ESE 5.8 mph - N/A   Clear
10:14 PM 66.2 °F 55.4 °F 68% 29.83 in 10.0 mi ESE 8.1 mph - N/A   Clear
10:34 PM 68.0 °F 57.2 °F 68% 29.82 in 10.0 mi SE 9.2 mph - N/A   Clear
10:53 PM 69.8 °F 57.2 °F 64% 29.82 in 10.0 mi SE 9.2 mph - N/A   Clear
11:14 PM 69.8 °F 57.2 °F 64% 29.82 in 10.0 mi SE 9.2 mph - N/A   Clear
11:34 PM 69.8 °F 57.2 °F 64% 29.82 in 10.0 mi SE 8.1 mph - N/A   Clear
11:53 PM 69.8 °F 57.2 °F 64% 29.82 in 10.0 mi SE 9.2 mph - N/A   Clear